Ningbo Lishe International Airport
ZSNB : now visible

Airfield :











YOU CAN JOIN US ON...

 
LOGIN :

Register | Disclaimer

   EN    FR    IT 

 









Legend :    VFR   Marginal VFR   IFR   Intensive IFR   Very Intensive IFR
Visi :
Ceiling :
>= 8 km
>= 3000ft
5 to 8 km
1000 to 3000 ft
1500m to 5 km
500 to 1000 ft
800 to 1500m
200 to 500 ft
< 800m
< 200 ft
Symbols :   Thunderstorms  Fog  Heavy snow  Heavy precipitations  Wind > 20 kt






- Airport Elevation : 13 ft
- IATA code : NGB


ZSNB - Ningbo Lishe International

CURRENT METAR :
  • 200000Z 19001MPS CAVOK 07/05 Q1031 NOSIG

EXPIRED METARs :
  • 192300Z VRB01MPS CAVOK 05/04 Q1030 NOSIG
  • 192200Z VRB01MPS CAVOK 05/04 Q1029 NOSIG

TAF TAF ZSNB
Valid from the 20 at 00:00 until the 21 at 00:00 UTC


192101Z 2000/2024 13004MPS 5000 BR SCT030 TX15/2006Z TN05/2021Z



MET'MAP, your aeronautical weather chart ! - Copyright ORBIFLY December 2007 - Disclaimer

ORBIFLY MET'MAP TEAM :

Programming & Development : Alexandra Zaïnal
Concept & original design : Baudouin d'Aumeries
Assistance for programming : Marc-Olivier Méhu
Technical & hardware support : Manuel Goepfert

Contact : metmap@orbifly.com




SOURCES & CREDITS :

   NOAA       Earth
Advisory